Location: Huntsville
(41.2590°N, 111.7678°W)
Time: 08:10:08
(UTC+00:00)

BlueWalker 3 - Pass Details

Date: 05 December 2022
Orbit: 499 x 517 km, 53.2° (Epoch: 07 February)

Event Time Altitude Azimuth Distance (km) Brightness Sun altitude
Rises 00:53:14 0° 305° (NW) 2,631 6.1 -10.2°
Reaches altitude 10° 00:56:17 10° 330° (NNW) 1,738 4.8 -10.7°
Maximum altitude 00:58:33 15° 5° (N) 1,463 4.0 -11.1°
Enters shadow 01:00:17 12° 34° (NE) 1,626 4.0 -11.5°
